Other Public Products
Issued by NWS Grand Forks, ND

Home | Current Version | Previous Version | Graphics & Text | Print | Product List | Glossary On
Versions: 1 2 3 4 5 6 7 8 9 10 11 12 13 14 15 16 17 18 19 20 21 22 23 24 25 26 27 28 29 30 31 32 33 34 35 36 37 38 39 40 41 42 43 44 45 46 47 48 49 50
008
FPUS83 KFGF 251610
OPUFGF
PRAIRIE TO PINES WEATHER ROUNDUP
NATIONAL WEATHER SERVICE EASTERN NORTH DAKOTA/GRAND FORKS ND
1000 AM CST SAT FEB 25 2017

 **SATELLITE DATA USED TO AUGMENT SKY COVER AT AUTOMATED STATIONS**
 *****  WEATHER ACROSS EASTERN NORTH DAKOTA  *****

CITY           SKY/WX    TMP DP  RH WIND       PRES   REMARKS
GRAND FORKS    CLOUDY    27  17  66 W10       29.85F WCI  17
GRAND FORKS AF FAIR      28  20  73 W12       29.84F WCI  18
GRAND CITY NWS NOT AVBL
BUXTON         NOT AVBL
DEVILS LAKE    CLOUDY    21  19  92 NW15      29.84F WCI   8
FARGO          CLOUDY    25  18  74 SW13      29.89F WCI  14
WAHPETON ARPT  CLOUDY    25  18  74 SW8       29.93F WCI  16
$$

 *****  WEATHER ACROSS CENTRAL AND WESTERN NORTH DAKOTA  *****

CITY           SKY/WX    TMP DP  RH WIND       PRES   REMARKS
JAMESTOWN      CLOUDY    25  19  78 W12       29.85F WCI  14
BISMARCK       LGT SNOW  24  21  88 W3        29.88F VSB 1
MINOT          CLOUDY    22  17  81 W14       29.87F WCI   9
MINOT AFB      FAIR      20  16  85 NW16      29.86F WCI   5
GARRISON         N/A     22  18  85 NW9       29.87F WCI  12
WILLISTON      LGT SNOW  19  17  92 CALM      29.89F FOG
DICKINSON      CLOUDY    22  19  89 NW10      29.83F WCI  11
HETTINGER      CLOUDY    26  23  88 W12       29.85F WCI  16
$$

 *****  OTHER OBSERVATIONS NORTHEAST NORTH DAKOTA  *****

CITY           SKY/WX    TMP DP  RH WIND       PRES   REMARKS
WALHALLA       NOT AVBL
LANGDON        NOT AVBL
CAVALIER         N/A     23  19  86 NW10      29.84F WCI  12
GRAFTON        FAIR      23  19  86 NW12      29.86F WCI  12
CANDO          NOT AVBL
FORT TOTTEN      N/A     21  21 100 W7        29.95S WCI  12
ROLLA          FLURRIES  16  16 100 NW21      29.82F WCI  -2
RUGBY            N/A     14  14 100 NW15      29.85F WCI  -1
 ***** THE ABOVE OBSERVATIONS ARE NON NWS ARE NOT QUALITY
        CONTROLLED AND MAY MIS-REPORT RAIN FOR SNOW...
$$

 *****  OTHER OBSERVATIONS SOUTHEAST NORTH DAKOTA *****

CITY           SKY/WX    TMP DP  RH WIND       PRES   REMARKS
COOPERSTOWN    PTSUNNY   25  21  86 W15       29.85F WCI  12
VALLEY CITY    FLURRIES  25  25 100 W12       29.87F WCI  14
OAKES          NOT AVBL
GWINNER        CLOUDY    28  23  80 SW15      29.90F WCI  17
SHEYENNE NWR     N/A     26  19  73 SW13      29.95S WCI  15
BUFFALO        NOT AVBL
WYNDMERE       NOT AVBL
 ***** THE ABOVE OBSERVATIONS ARE NON NWS ARE NOT QUALITY
       CONTROLLED AND MAY MIS-REPORT RAIN FOR SNOW...
$$

  *****  WEATHER ACROSS NORTHERN MINNESOTA  *****

CITY           SKY/WX    TMP DP  RH WIND       PRES   REMARKS
FLAG ISLAND    CLOUDY    10   5  79 S5        29.82F HAZE    WCI   2
WARROAD        LGT SNOW  14  10  85 S3        29.83F
ROSEAU         LGT SNOW  16  10  79 S7        29.82F WCI   6
HALLOCK        CLOUDY    21  19  93 W7        29.83F WCI  13
THF RVR FALLS  FAIR      21  16  81 SW14      29.84F WCI   8
HALSTAD          N/A     24  18  75 SW12        N/A  WCI  13
FOSSTON        FLURRIES  19  14  79 S17       29.85F WCI   4
BAUDETTE       FLURRIES  12   2  64 CALM      29.83F
WASKISH        LGT SNOW  12   9  85 SW3       29.84F
CROOKSTON      PTSUNNY   25  19  80 SW14      29.86F WCI  13
$$
  *****  WEATHER ACROSS CENTRAL AND WEST MINNESOTA  *****

CITY           SKY/WX    TMP DP  RH WIND       PRES   REMARKS
BEMIDJI        LGT SNOW  13   8  80 S3        29.85F
PARK RAPIDS    CLOUDY    17   6  62 SW3       29.87F
WADENA         MIX PCPN  18   9  68 SW8       29.89F WCI   7
DETROIT LAKES  FAIR      21  16  79 SW8       29.89F WCI  12
MOORHEAD       CLOUDY    23  18  80 SW8       29.91F WCI  14
FERGUS FALLS   PTSUNNY   21  14  73 SW9       29.97F WCI  11
ELBOW LAKE     CLOUDY    21  11  65 SW8       29.94F WCI  11
MORRIS MN      CLOUDY    21  10  63 SW6       29.95F WCI  14
STAPLES        FLURRIES  18   9  68 W7        29.90F WCI   8
WHEATON        CLOUDY    25  18  74 S7        29.96F WCI  17
$$
  *****  WEATHER ELSEWHERE ACROSS MINNESOTA  *****

CITY           SKY/WX    TMP DP  RH WIND       PRES   REMARKS
DULUTH         FAIR      12   3  67 NW17G26   29.79F WCI  -5
INTRNTL FALLS  FAIR      11  -1  58 W6        29.83F WCI   1
ELY            FAIR      12   1  62 NW10G16   29.78F WCI  -1
CLOQUET        FAIR      12   1  62 W13G21    29.83F WCI  -3
BRAINERD       FAIR      16   4  59 W7        29.91F WCI   6
HIBBING        FAIR      10  -1  61 NW9       29.83F WCI  -3
ALEXANDRIA     CLOUDY    21  12  68 W7        29.92F WCI  12
SAINT CLOUD    FAIR      21   7  54 NW13      29.94F WCI   9
MINNEAPOLIS    FAIR      21   3  45 NW10      29.95F WCI  10
$$

  *****  WEATHER ACROSS SOUTH DAKOTA  *****

CITY           SKY/WX    TMP DP  RH WIND       PRES   REMARKS
SIOUX FALLS    PTSUNNY   21  16  81 W5        30.02F WCI  15
BROOKINGS      PTSUNNY   23  17  78 SW10      29.97F WCI  12
WATERTOWN      PTSUNNY   24  19  81 SW13      29.94F WCI  12
HURON          CLOUDY    26  18  71 SW14      29.98F WCI  14
SISSETON         N/A     30  19  63 W14       29.92F WCI  19
ABERDEEN       FAIR      28  17  63 SW15      29.93F WCI  16
MITCHELL       CLOUDY    26  17  68 SW10      30.02F WCI  16
PIERRE         FAIR      26  17  68 SW9       29.92F WCI  17
MOBRIDGE       FAIR      29  17  61 SW6       29.87F WCI  23
RAPID CITY     PTSUNNY   27  16  63 W3        29.88F
$$

  *****  SOME WEATHER IN NEARBY STATES *****

CITY           SKY/WX    TMP DP  RH WIND       PRES   REMARKS
GLASGOW MT     CLOUDY    24  22  91 SW6       29.84F WCI  17
GREAT FALLS MT FAIR      25  12  58 SW20G26   29.82F WCI  11
CHEYENNE WY    FAIR      18   3  52 W15G25    29.86F WCI   4
SCOTTSBLUFF NE FAIR       6   1  80 NW8       29.96F WCI  -7
OMAHA NE       PTSUNNY   24  15  68 NW3       30.14F
DES MOINES IA  FAIR      23  10  57 NW17      30.07S WCI   9
DAVENPORT IA   PTSUNNY   21  12  68 NW20      29.96R WCI   6
CHICAGO IL     FLURRIES  24  14  65 W16G25    29.82R WCI  11
EAU CLAIRE WI  MIX PCPN  15   4  61 NW13      29.88R WCI   1
LA CROSSE WI   FAIR      20   8  60 NW21G29   29.90R WCI   4
$$

  *****  SOME NATIONAL WEATHER *****

CITY           SKY/WX    TMP DP  RH WIND       PRES   REMARKS
LA GUARDIA NY  CLOUDY    58  54  86 S7        29.71F FOG
RALEIGH NC     PTSUNNY   74  56  53 SW17G23   29.69F
ATLANTA GA     FAIR      63  27  25 W21G29    29.88R
NEW ORLEANS LA FAIR      60  37  42 N14G20    30.05R
OKLAHOMA CITY  FAIR      34  19  54 N10       30.26R
ALBUQUERQUE NM FAIR      33   4  29 CALM      30.10S
SALT LAKE CITY CLOUDY    25  16  68 SE8       30.09R WCI  16
LOS ANGELES CA FAIR      49  39  68 E5        30.15R
BOISE ID       FAIR      25  18  74 SE5       30.16R WCI  19
SEATTLE WA     MOCLDY    34  28  79 SE5       30.25R
$$

*** WEATHER ACROSS MANITOBA...SASKATCHEWAN AND ONTARIO ***
                ***ONTARIO***

CITY           SKY/WX    TMP DP  RH WIND       PRES   REMARKS
GERALDTON      FLURRIES   7   0  72 VRB6G20   29.55F WCI  -3
THUNDER BAY    MOSUNNY   18   3  53 NW13G25   29.70F WCI   4
SIOUX LOOKOUT  MOSUNNY   10   1  67 NW10      29.74F WCI  -3
TORONTO        PTSUNNY   45  36  70 W18G26    29.46R
BIG TROUT LK   FLURRIES  -6  -9  84 S3        29.72F
PICKLE LAKE    PTSUNNY    5  -8  56 VRB3      29.67F
DRYDEN         PTSUNNY    7  -2  66 W6        29.76F WCI  -3
KENORA         FLURRIES  10   1  67 NW7       29.79F WCI   0
$$
                *** MANITOBA***

CITY           SKY/WX    TMP DP  RH WIND       PRES   REMARKS
BRANDON        PTSUNNY   14  12  92 NW15      29.84F WCI  -1
DAUPHIN        CLOUDY    10   1  67 NW13G21   29.88F WCI  -5
ISLAND LAKE    CRYSTALS  -6 -11  77 W5        29.79F WCI -17
PILOT MOUND      N/A     18  16  93 NW13G20     N/A  WCI   4
THE PAS        FLURRIES   3  -8  60 NW12G17   29.87F WCI -13
THOMPSON       FLURRIES  -8 -13  77 W6        29.79F WCI -21
WINNIPEG       LGT SNOW  18  14  86 W8        29.82F WCI   7
LYNN LAKE      FLURRIES  -9 -13  84 W9        29.78F WCI -27
CHURCHILL      PTSUNNY  -11 -15  84 SW3       29.82F
GILLAM         PTSUNNY   -8 -11  84 NW3       29.79F
$$
                ***SASKATCHEWAN***

CITY           SKY/WX    TMP DP  RH WIND       PRES   REMARKS
ESTEVAN        FLURRIES  12   9  85 NW9       29.88F WCI   0
KINDERSLEY     CLOUDY    10   7  85 S6        29.84F WCI   1
LLOYDMINSTER   PTSUNNY    7   3  85 SW10      29.80F WCI  -8
PRINCE ALBERT  FLURRIES   7  -2  66 NW10      29.89F WCI  -8
REGINA         PTSUNNY   10   5  79 NW12      29.87F WCI  -4
YORKTON        LGT SNOW   9   3  78 N15       29.86F W



USA.gov is the U.S. government's official web portal to all federal, state and local government web resources and services.